Погода в Кампале

Уганда     0°18′52″N   32°34′43″E
темп.,
°C
ветер,
м/с
пор.,
м/с
влажн.,
%
обл.,
%
осадки,
мм/ч
давл.,
гПа
погр.,
м
10 августа, ср
ср1000:00+21ююз1159100 0.0 101328
03:00+21з1151100 0.0 101121
06:00+20св115279 0.0 101238
09:00+24с0042100 0.0 1014352
12:00+28ю4433100 0.0 10121947
15:00+27ю6542100 0.0 10101419
18:00+24ю4649100 0.0 1010624
21:00+20ююв247084 0.0 1011135
11 августа, чт
чт1100:00+20сз116672 0.0 101112
03:00+20ссз2563100 0.0 1011175
06:00+19ссз2366100 0.0 101284
09:00+24ссз115390 0.0 1014447
12:00+29ююв4534100 0.0 10122064
15:00+27ю5638100 0.0 10101452
18:00+23ю4659100 0.0 1010419
21:00+21ю1272100 0.0 101169
12 августа, пт
пт1200:00+22зсз116084 0.0 101113
03:00+18ссв3773100 0.0 1011172
06:00+17с2382100 0.0 101398
09:00+22ссв346591 0.0 1014563
12:00+28ююв3441100 0.0 10122253
15:00+25ююв4552100 0.0 1010837
18:00+23ююв3458100 0.0 1011559
21:00+20юв017461 0.0 101231
13 августа, сб
сб1300:00+19с227662 0.0 101235
03:00+18с2270100 0.0 101149
06:00+18с24777 0.0 1013124
09:00+23с356173 0.0 1014598
12:00+31вюв133374 0.0 10112375
15:00+25ююв445098 0.0 1010626
18:00+24ююв345677 0.0 1010413
21:00+21зюз016856 0.0 101229
14 августа, вс
вс1400:00+19ссз237265 0.0 101390
03:00+19ссз498394 0.0 1011302
06:00+18с129192 0.0 101294
09:00+23с346460 0.0 1013529
12:00+29св124199 0.6 10111849
15:00+27юв3345100 0.6 10081506
18:00+20с358899 3.9 1011237
21:00+19сз269082 7.9 1012163